Regional Weather Roundup
Issued by NWS Northern Indiana

Home | Current Version | Previous Version | Graphics & Text | Print | Product List | Glossary On
Versions: 1 2 3 4 5 6 7 8 9 10 11 12 13 14 15 16 17 18 19 20 21 22 23 24 25 26 27 28 29 30 31 32 33 34 35 36 37 38 39 40 41 42 43 44 45 46 47 48 49 50
000
ASUS43 KIWX 180900
RWRIWX

KIWX WEATHER ROUNDUP
NATIONAL WEATHER SERVICE NORTHERN INDIANA
500 AM EDT THU SEP 18 2014

NOTE: "FAIR" INDICATES FEW OR NO CLOUDS BELOW 12,000 FEET WITH NO
SIGNIFICANT WEATHER AND/OR OBSTRUCTIONS TO VISIBILITY.

* THESE STATIONS ARE NOT UNDER NWS QUALITY CONTROL. THEY ALSO MAY NOT
  REPORT WEATHER SUCH AS PRECIPITATION OR FOG.

INZ001>027-181000-
NORTHERN INDIANA

CITY           SKY/WX    TMP DP  RH WIND       PRES   REMARKS
VALPARAISO     CLEAR     46  43  89 CALM      30.06S
KNOX*          CLEAR     43  41  94 CALM      30.05S
SOUTH BEND     CLEAR     45  41  86 N3        30.07R
GOSHEN         FOG       43  41  93 CALM      30.06R VSB 3/4
WARSAW*        CLEAR     41  41 100 CALM      30.06R FOG
ANGOLA*        MOCLDY    45  45 100 CALM      30.06R VSB 3/4
FORT WAYNE     CLEAR     46  44  93 N3        30.06R
PERU/GRISSOM   CLEAR     45  45 100 CALM      30.04F

$$
INZ028>050-181000-
CENTRAL INDIANA

CITY           SKY/WX    TMP DP  RH WIND       PRES   REMARKS
LAFAYETTE      CLEAR     47  46  97 CALM      30.04S
KOKOMO*        CLEAR     45  43  93 CALM      30.05S
MUNCIE*        FOG       45  44  97 CALM      30.04S VSB 1/2
INDIANAPOLIS   CLEAR     52  48  86 N5        30.02F

$$
MIZ043>046-050>051-056>058-064>065-071>073-077>080-181000-
SOUTHWEST LOWER MICHIGAN

CITY           SKY/WX    TMP DP  RH WIND       PRES   REMARKS
BATTLE CREEK   CLEAR     44  41  89 CALM      30.07R
BENTON HARBOR  CLEAR     41  40  96 CALM      30.07R
COLDWATER*     FOG       44  43  97 MISG      30.06S VSB 1/4
HILLSDALE*     CLEAR     43  43 100 CALM      30.06R FOG
HOLLAND        CLEAR     45  43  93 CALM      30.07R
GRAND RAPIDS   CLEAR     45  42  89 CALM      30.08R
KALAMAZOO      CLEAR     43  41  93 CALM      30.08R FOG
STURGIS*       CLEAR     43  43 100 CALM      30.06S FOG
THREE RIVERS*  FAIR      43  42  95 CALM      30.07S

$$
OHZ001>008-015>018-024>025-181000-
NORTHWEST OHIO

CITY           SKY/WX    TMP DP  RH WIND       PRES   REMARKS
DEFIANCE       CLEAR     46  42  86 CALM      30.05S
FINDLAY        CLEAR     50  47  89 CALM      30.03S
TOLEDO EXPRESS CLEAR     45  44  97 CALM      30.04S
TOLEDO METCALF CLEAR     50  45  83 NW3       30.05S
LIMA           CLEAR     46  43  89 CALM      30.04S FOG

$$
&&



USA.gov is the U.S. government's official web portal to all federal, state and local government web resources and services.